Back to catalog

ARIANE 2 DEB

AliveUNKNOWN
NORAD 23966·DEBRIS·🇫🇷 France

Launched Oct 28, 1988 from Guiana Space Centre

Loading…

Next Passes (next 24 hours)

TLE

AgingSource: Space-Track

Epoch: Aug 24, 2026, 05:43 UTC

1 23966U 88098F   26236.23844485  .02638522 -15253-4  67163-2 0  9990
2 23966   3.4240 293.3554 1770471 334.2289  17.9190 12.19954651408462

Track ARIANE 2 DEB in real time with AllMySat

Download on the App Store